Weather History for KBPC - March, 2012

Change the Weather History Date:

Tuesday, March 13, 2012

  Actual Average Record
Temperature  
Mean Temperature 62 °F -  
Max Temperature 86 °F - - ()
Min Temperature 39 °F - - ()
Degree Days  
Heating Degree Days 2    
Growing Degree Days 12 (Base 50)    
Moisture  
Dew Point 22 °F    
Average Humidity 31    
Maximum Humidity 70    
Minimum Humidity 6    
Precipitation  
Precipitation 0.00 in - - ()
Sea Level Pressure  
Sea Level Pressure 29.95 in    
Wind  
Wind Speed 9 mph (SW)    
Max Wind Speed 28 mph    
Max Gust Speed 34 mph    
Visibility 10 miles    
Events      
Averages and records for this station are not official NWS values.
T = Trace of Precipitation, MM = Missing Value Source: NWS Daily Summary

Daily Weather History Graph

Daily Weather History Graph

Search for Another Location

Airport or City:

Trip Planner

Search our weather history database for the weather conditions in past years. The results will help you decide how hot, cold, wet, or windy it might be!

Date:

Astronomy

Mar. 13, 2012 Rise Set
Actual Time 7:56 AM CDT 7:50 PM CDT
Civil Twilight 7:31 AM CDT 8:15 PM CDT
Nautical Twilight 7:01 AM CDT 8:45 PM CDT
Astronomical Twilight 6:31 AM CDT 9:15 PM CDT
Moon 1:12 AM CDT (3/13) 11:24 AM CDT (3/13)
Length of Visible Light 12h 44m
Length of Day
11h 53m
Waning Gibbous, 65% of the Moon is Illuminated
Mar 13
Waning Gibbous
Mar 14
Last Quarter
Mar 22
New
Mar 30
First Quarter
Apr 6
Full

Hourly Weather History & Observations

Time (CDT) Temp. Windchill Dew Point Humidity Pressure Visibility Wind Dir Wind Speed Gust Speed Precip Events Conditions
12:15 AM 50.0 °F - 32.0 °F 50% 29.96 in 10.0 mi WSW 8.1 mph - N/A   Clear
12:35 AM 51.8 °F - 30.2 °F 44% 29.96 in 10.0 mi SW 8.1 mph - N/A   Clear
12:55 AM 50.0 °F - 32.0 °F 50% 29.96 in 10.0 mi WSW 4.6 mph - N/A   Clear
1:15 AM 46.4 °F 44.3 °F 32.0 °F 57% 29.97 in 10.0 mi NW 4.6 mph - N/A   Clear
1:55 AM 42.8 °F 36.6 °F 32.0 °F 66% 29.97 in 10.0 mi SW 11.5 mph - N/A   Clear
2:15 AM 46.4 °F 40.7 °F 30.2 °F 53% 29.97 in 10.0 mi SW 12.7 mph - N/A   Clear
2:35 AM 44.6 °F 39.7 °F 30.2 °F 57% 29.97 in 10.0 mi SW 9.2 mph - N/A   Clear
2:55 AM 46.4 °F 41.5 °F 28.4 °F 50% 29.98 in 10.0 mi SW 10.4 mph - N/A   Clear
3:15 AM 46.4 °F 43.5 °F 28.4 °F 50% 29.98 in 10.0 mi SW 5.8 mph - N/A   Clear
3:35 AM 42.8 °F 40.1 °F 32.0 °F 66% 29.98 in 10.0 mi WNW 4.6 mph - N/A   Clear
3:55 AM 41.0 °F 39.0 °F 32.0 °F 70% 29.98 in 10.0 mi WNW 3.5 mph - N/A   Clear
4:15 AM 41.0 °F - 32.0 °F 70% 29.98 in 10.0 mi Calm Calm - N/A   Clear
4:35 AM 41.0 °F 38.0 °F 30.2 °F 65% 29.98 in 10.0 mi SW 4.6 mph - N/A   Clear
4:55 AM 41.0 °F 39.0 °F 28.4 °F 61% 29.98 in 10.0 mi SW 3.5 mph - N/A   Clear
5:15 AM 39.2 °F 33.0 °F 30.2 °F 70% 29.97 in 10.0 mi SW 9.2 mph - N/A   Clear
5:35 AM 41.0 °F 36.4 °F 28.4 °F 61% 29.97 in 10.0 mi WSW 6.9 mph - N/A   Clear
5:55 AM 42.8 °F 36.6 °F 28.4 °F 57% 29.97 in 10.0 mi SW 11.5 mph - N/A   Clear
6:15 AM 42.8 °F - 28.4 °F 57% 29.98 in 10.0 mi Calm Calm - N/A   Clear
6:55 AM 41.0 °F 38.0 °F 24.8 °F 53% 29.98 in 10.0 mi WSW 4.6 mph - N/A   Clear
7:55 AM 42.8 °F - 24.8 °F 49% 30.00 in 10.0 mi Calm Calm - N/A   Clear
8:15 AM 44.6 °F 42.2 °F 23.0 °F 43% 30.00 in 10.0 mi WSW 4.6 mph - N/A   Clear
8:35 AM 44.6 °F 43.1 °F 23.0 °F 43% 30.01 in 10.0 mi WSW 3.5 mph - N/A   Clear
8:55 AM 41.0 °F 37.1 °F 28.4 °F 61% 30.01 in 10.0 mi WSW 5.8 mph - N/A   Clear
9:15 AM 48.2 °F - 26.6 °F 43% 30.01 in 10.0 mi WSW 5.8 mph - N/A   Clear
9:35 AM 51.8 °F - 24.8 °F 35% 30.01 in 10.0 mi West 6.9 mph - N/A   Clear
9:55 AM 51.8 °F - 26.6 °F 38% 30.02 in 10.0 mi West 8.1 mph - N/A   Clear
10:15 AM 53.6 °F - 26.6 °F 35% 30.02 in 10.0 mi WSW 8.1 mph - N/A   Clear
10:35 AM 57.2 °F - 26.6 °F 31% 30.02 in 10.0 mi West 6.9 mph - N/A   Clear
10:55 AM 60.8 °F - 26.6 °F 27% 30.03 in 10.0 mi SSW 9.2 mph - N/A   Clear
11:15 AM 62.6 °F - 23.0 °F 22% 30.02 in 10.0 mi SW 10.4 mph - N/A   Clear
11:35 AM 66.2 °F - 21.2 °F 18% 30.01 in 10.0 mi SW 11.5 mph - N/A   Clear
11:55 AM 69.8 °F - 23.0 °F 17% 30.01 in 10.0 mi SW 8.1 mph - N/A   Clear
12:15 PM 71.6 °F - 23.0 °F 16% 30.01 in 10.0 mi SSW 5.8 mph - N/A   Clear
12:35 PM 73.4 °F - 21.2 °F 14% 30.00 in 10.0 mi WSW 5.8 mph - N/A   Clear
12:55 PM 77.0 °F - 23.0 °F 13% 29.99 in 10.0 mi WSW 5.8 mph - N/A   Clear
1:15 PM 77.0 °F - 24.8 °F 14% 29.98 in 10.0 mi West 9.2 mph - N/A   Clear
1:35 PM 78.8 °F - 23.0 °F 13% 29.98 in 10.0 mi West 8.1 mph - N/A   Clear
1:55 PM 82.4 °F - 21.2 °F 10% 29.97 in 10.0 mi SW 15.0 mph 20.7 mph N/A   Clear
2:15 PM 82.4 °F - 17.6 °F 9% 29.95 in 10.0 mi SSW 18.4 mph 26.5 mph N/A   Clear
2:35 PM 82.4 °F - 17.6 °F 9% 29.94 in 10.0 mi SW 18.4 mph 26.5 mph N/A   Clear
2:55 PM 82.4 °F - 14.0 °F 8% 29.94 in 10.0 mi SSW 20.7 mph 31.1 mph N/A   Clear
3:15 PM 84.2 °F - 15.8 °F 8% 29.92 in 10.0 mi SW 19.6 mph 25.3 mph N/A   Clear
3:35 PM 84.2 °F - 14.0 °F 7% 29.91 in 10.0 mi SSW 20.7 mph 34.5 mph N/A   Clear
3:55 PM 82.4 °F - 12.2 °F 7% 29.90 in 10.0 mi SW 19.6 mph 33.4 mph N/A   Clear
4:15 PM 82.4 °F - 15.8 °F 8% 29.89 in 10.0 mi SW 18.4 mph 34.5 mph N/A   Clear
4:35 PM 84.2 °F - 14.0 °F 7% 29.88 in 10.0 mi SSW 20.7 mph 31.1 mph N/A   Clear
4:55 PM 84.2 °F - 12.2 °F 7% 29.88 in 10.0 mi SSW 20.7 mph 29.9 mph N/A   Clear
5:15 PM 84.2 °F - 12.2 °F 7% 29.88 in 10.0 mi SSW 27.6 mph 34.5 mph N/A   Clear
5:35 PM 86.0 °F - 12.2 °F 6% 29.87 in 10.0 mi SW 23.0 mph 31.1 mph N/A   Clear
6:15 PM 84.2 °F - 12.2 °F 7% 29.87 in 10.0 mi SSW 18.4 mph 32.2 mph N/A   Clear
6:35 PM 84.2 °F - 12.2 °F 7% 29.86 in 10.0 mi SW 24.2 mph 28.8 mph N/A   Clear
6:55 PM 82.4 °F - 12.2 °F 7% 29.86 in 10.0 mi SW 17.3 mph 32.2 mph N/A   Clear
7:15 PM 82.4 °F - 10.4 °F 7% 29.86 in 10.0 mi SW 21.9 mph 26.5 mph N/A   Clear
7:35 PM 80.6 °F - 12.2 °F 8% 29.87 in 10.0 mi SW 15.0 mph 23.0 mph N/A   Clear
7:55 PM 77.0 °F - 12.2 °F 9% 29.87 in 10.0 mi SW 15.0 mph - N/A   Clear
8:15 PM 71.6 °F - 12.2 °F 10% 29.87 in 10.0 mi SSW 11.5 mph - N/A   Clear
8:35 PM 68.0 °F - 14.0 °F 12% 29.87 in 10.0 mi SSW 12.7 mph - N/A   Clear
8:55 PM 64.4 °F - 15.8 °F 15% 29.88 in 10.0 mi South 13.8 mph - N/A   Clear
9:15 PM 64.4 °F - 15.8 °F 15% 29.88 in 10.0 mi SSW 13.8 mph - N/A   Clear
9:35 PM 64.4 °F - 15.8 °F 15% 29.89 in 10.0 mi SSW 11.5 mph - N/A   Clear
10:15 PM 60.8 °F - 19.4 °F 20% 29.90 in 10.0 mi South 12.7 mph - N/A   Clear
10:35 PM 62.6 °F - 33.8 °F 34% 29.90 in 10.0 mi South 17.3 mph - N/A   Clear
10:55 PM 66.2 °F - 41.0 °F 40% 29.90 in 10.0 mi South 18.4 mph - N/A   Clear
11:15 PM 64.4 °F - 42.8 °F 45% 29.91 in 10.0 mi South 18.4 mph 25.3 mph N/A   Clear
11:35 PM 64.4 °F - 42.8 °F 45% 29.91 in 10.0 mi South 18.4 mph 24.2 mph N/A   Clear
11:55 PM 64.4 °F - 42.8 °F 45% 29.91 in 10.0 mi South 17.3 mph 23.0 mph N/A   Clear